| time (UTC) | temp C | wind direction | speed KPH | gust KPH | rain 1hr cm | rain 24hr cm | rain mn cm | humidity % | barometer mb |
| 20260502210022 | 12 | 79 | 0.0 | 0.0 | 0.00 | 0.05 | 0.05 | 84 | 1012.3 |
| 20260502204534 | 12 | 79 | 0.0 | 0.0 | 0.00 | 0.05 | 0.05 | 84 | 1012.3 |
| 20260502203026 | 12 | 80 | 0.0 | 0.0 | 0.00 | 0.05 | 0.05 | 84 | 1012.3 |
| 20260502201520 | 12 | 66 | 0.0 | 0.0 | 0.00 | 0.05 | 0.05 | 83 | 1012.3 |
| 20260502200020 | 12 | 82 | 0.0 | 0.0 | 0.00 | 0.05 | 0.05 | 83 | 1012.3 |
| 20260502194526 | 12 | 75 | 0.0 | 0.0 | 0.00 | 0.05 | 0.05 | 83 | 1012.3 |
| 20260502193021 | 12 | 75 | 0.0 | 1.6 | 0.00 | 0.05 | 0.05 | 83 | 1012.4 |
| 20260502191518 | 13 | 72 | 0.0 | 0.0 | 0.00 | 0.05 | 0.05 | 82 | 1012.4 |
| 20260502190021 | 13 | 77 | 0.0 | 0.0 | 0.00 | 0.05 | 0.05 | 81 | 1012.3 |
| 20260502184518 | 13 | 77 | 0.0 | 1.6 | 0.00 | 0.05 | 0.05 | 80 | 1012.2 |
| 20260502183016 | 13 | 80 | 0.0 | 1.6 | 0.00 | 0.05 | 0.05 | 79 | 1012.2 |
| 20260502181515 | 14 | 87 | 0.0 | 0.0 | 0.00 | 0.05 | 0.05 | 79 | 1012.2 |
| 20260502163029 | 16 | 79 | 0.0 | 1.6 | 0.00 | 0.05 | 0.05 | 72 | 1012.3 |
| 20260502161519 | 16 | 85 | 0.0 | 1.6 | 0.00 | 0.05 | 0.05 | 71 | 1012.5 |
| 20260502151504 | 17 | 305 | 0.0 | 0.0 | 0.00 | 0.05 | 0.05 | 67 | 1012.9 |
| 20260502123107 | 17 | 145 | 0.0 | 1.6 | 0.00 | 0.08 | 0.05 | 62 | 1013.8 |
| 20260502121542 | 18 | 316 | 0.0 | 1.6 | 0.00 | 0.08 | 0.05 | 62 | 1013.8 |
| 20260502114536 | 17 | 333 | 0.0 | 1.6 | 0.00 | 0.18 | 0.05 | 66 | 1014.1 |
| 20260502113044 | 17 | 94 | 0.0 | 0.0 | 0.00 | 0.18 | 0.05 | 67 | 1014.1 |
| 20260502111536 | 16 | 86 | 0.0 | 4.8 | 0.00 | 0.18 | 0.05 | 70 | 1014.2 |
| 20260502110031 | 17 | 305 | 0.0 | 1.6 | 0.00 | 0.18 | 0.05 | 68 | 1014.2 |
| 20260502104533 | 17 | 309 | 0.0 | 4.8 | 0.00 | 0.20 | 0.05 | 70 | 1014.2 |
| 20260502103027 | 16 | 314 | 0.0 | 1.6 | 0.00 | 0.20 | 0.05 | 72 | 1014.2 |
| 20260502101525 | 16 | 307 | 0.0 | 1.6 | 0.00 | 0.20 | 0.05 | 74 | 1014.3 |
| 20260502091515 | 15 | 354 | 0.0 | 6.4 | 0.00 | 0.20 | 0.05 | 79 | 1014.6 |
| 20260502070111 | 11 | 148 | 0.0 | 4.8 | 0.00 | 0.20 | 0.05 | 91 | 1014.7 |
| 20260502064555 | 11 | 210 | 0.0 | 1.6 | 0.00 | 0.20 | 0.05 | 94 | 1014.9 |
| 20260502063055 | 10 | 199 | 0.0 | 0.0 | 0.00 | 0.20 | 0.05 | 94 | 1014.8 |
| 20260502061554 | 9 | 198 | 0.0 | 0.0 | 0.00 | 0.20 | 0.05 | 94 | 1014.8 |
| 20260502060054 | 9 | 198 | 0.0 | 0.0 | 0.00 | 0.20 | 0.05 | 94 | 1014.9 |
| 20260502054552 | 8 | 200 | 0.0 | 0.0 | 0.00 | 0.20 | 0.05 | 94 | 1014.9 |
| 20260502053056 | 8 | 194 | 0.0 | 0.0 | 0.00 | 0.20 | 0.05 | 94 | 1015.0 |
| 20260502051600 | 8 | 2 | 0.0 | 0.0 | 0.00 | 0.20 | 0.05 | 95 | 1015.0 |
| 20260502050049 | 8 | 2 | 0.0 | 0.0 | 0.00 | 0.20 | 0.05 | 94 | 1015.0 |
| 20260502044549 | 8 | 2 | 0.0 | 0.0 | 0.00 | 0.20 | 0.05 | 94 | 1014.9 |
| 20260502043047 | 8 | 2 | 0.0 | 0.0 | 0.00 | 0.20 | 0.05 | 94 | 1014.9 |
| 20260502041544 | 8 | 2 | 0.0 | 0.0 | 0.00 | 0.20 | 0.05 | 94 | 1014.9 |
| 20260502040044 | 8 | 2 | 0.0 | 0.0 | 0.00 | 0.20 | 0.05 | 94 | 1014.9 |
| 20260502034543 | 8 | 2 | 0.0 | 0.0 | 0.00 | 0.20 | 0.05 | 94 | 1014.9 |
| 20260502033042 | 8 | 2 | 0.0 | 0.0 | 0.00 | 0.20 | 0.05 | 94 | 1015.0 |
| 20260502031541 | 8 | 105 | 0.0 | 0.0 | 0.00 | 0.20 | 0.05 | 94 | 1014.8 |
| 20260502030045 | 8 | 105 | 0.0 | 0.0 | 0.00 | 0.20 | 0.05 | 93 | 1015.0 |
| 20260502024536 | 9 | 105 | 0.0 | 0.0 | 0.00 | 0.20 | 0.05 | 93 | 1015.3 |
| 20260502023036 | 9 | 105 | 0.0 | 0.0 | 0.00 | 0.20 | 0.05 | 93 | 1015.3 |
| 20260502021532 | 10 | 105 | 0.0 | 0.0 | 0.00 | 0.20 | 0.05 | 92 | 1015.6 |
| 20260502020029 | 10 | 105 | 0.0 | 0.0 | 0.00 | 0.20 | 0.05 | 93 | 1015.4 |
| 20260502014529 | 10 | 105 | 0.0 | 0.0 | 0.00 | 0.20 | 0.05 | 93 | 1015.7 |
| 20260502013025 | 10 | 105 | 0.0 | 0.0 | 0.00 | 0.20 | 0.05 | 93 | 1015.7 |
| 20260502011522 | 11 | 105 | 0.0 | 0.0 | 0.00 | 0.20 | 0.05 | 92 | 1015.9 |
| 20260502010026 | 11 | 105 | 0.0 | 0.0 | 0.00 | 0.20 | 0.05 | 92 | 1016.0 |
| 20260502004519 | 11 | 105 | 0.0 | 0.0 | 0.03 | 0.20 | 0.05 | 92 | 1016.1 |
| 20260502003016 | 11 | 359 | 0.0 | 0.0 | 0.03 | 0.20 | 0.05 | 92 | 1016.1 |
| 20260502001515 | 11 | 359 | 0.0 | 0.0 | 0.05 | 0.20 | 0.05 | 91 | 1016.2 |
| 20260502000016 | 12 | 359 | 0.0 | 0.0 | 0.05 | 0.20 | 0.05 | 90 | 1016.3 |
| 20260501234509 | 12 | 359 | 0.0 | 0.0 | 0.03 | 0.18 | 0.03 | 90 | 1016.3 |
| 20260501233007 | 12 | 358 | 0.0 | 0.0 | 0.03 | 0.18 | 0.03 | 88 | 1016.6 |
| 20260501231504 | 12 | 359 | 0.0 | 0.0 | 0.00 | 0.15 | 0.00 | 86 | 1016.4 |
| 20260501230002 | 12 | 358 | 0.0 | 0.0 | 0.00 | 0.15 | 0.15 | 84 | 1016.4 |
| 20260501224501 | 13 | 359 | 0.0 | 0.0 | 0.00 | 0.15 | 0.15 | 83 | 1016.5 |
| 20260501223002 | 13 | 358 | 0.0 | 0.0 | 0.00 | 0.15 | 0.15 | 82 | 1016.6 |
| 20260501221605 | 13 | 358 | 0.0 | 0.0 | 0.00 | 0.15 | 0.15 | 81 | 1016.5 |
| 20260501220109 | 13 | 358 | 0.0 | 0.0 | 0.00 | 0.15 | 0.15 | 79 | 1016.5 |
| 20260501214604 | 13 | 359 | 0.0 | 0.0 | 0.00 | 0.15 | 0.15 | 78 | 1016.5 |
| 20260501213106 | 13 | 358 | 0.0 | 0.0 | 0.00 | 0.15 | 0.15 | 77 | 1016.5 |
| 20260501211607 | 15 | 313 | 0.0 | 0.0 | 0.00 | 0.15 | 0.15 | 75 | 1016.5 |